Regional Weather Roundup
Issued by NWS

Home | Current Version | Previous Version | Text Only | Print | Product List | Glossary Off
Versions: 1 2 3 4 5 6 7 8 9 10 11 12 13 14 15 16 17 18 19 20 21 22 23 24 25 26 27 28 29 30 31 32 33 34 35 36 37 38 39 40 41 42 43 44 45 46 47 48 49 50

000
ASUS43 KMKX 231521
RWRWI

WISCONSIN REGIONAL WEATHER ROUNDUP
NATIONAL WEATHER SERVICE MILWAUKEE/SULLIVAN WI
1000 AM CDT SAT JUL 23 2016

NOTE: "FAIR" INDICATES FEW OR NO CLOUDS BELOW 12,000 FEET WITH NO
SIGNIFICANT WEATHER AND/OR OBSTRUCTIONS TO VISIBILITY.

WIZ001-002-006>008-014>016-023>028-231600-
NORTHWEST WISCONSIN

CITY           SKY/WX    TMP DP  RH WIND       PRES   REMARKS
SUPERIOR ARPT  CLOUDY    73  63  70 NE9       29.94F
ASHLAND        SUNNY     77  66  68 N6        29.96F
HAYWARD        CLOUDY    80  61  52 E6        29.94F HX  81
SIREN          NOT AVBL
CUMBERLAND     CLOUDY    77  63  61 SE9       29.93F
RICE LAKE      CLOUDY    79  67  67 E6        29.94F HX  81
CHETEK         CLOUDY    80  71  74 E5        29.93F HX  83
LADYSMITH      MOSUNNY   83  67  58 E8        29.96F HX  85
EAU CLAIRE     PTSUNNY   83  67  58 SE13      29.94S HX  85
MENOMONIE      PTSUNNY   82  68  62 E10       29.94R HX  85
NEW RICHMOND   CLOUDY    81  65  59 SE8G17    29.94R HX  82
OSCEOLA        CLOUDY    80  69  67 SE9       29.94R HX  83
$$

WIZ003>005-009-010-017-018-231600-
NORTH CENTRAL WISCONSIN

CITY           SKY/WX    TMP DP  RH WIND       PRES   REMARKS
MANITOWISH WTR SUNNY     79  62  56 E6        30.00F HX  80
ARBOR VITAE    SUNNY     80  59  48 E5        30.00F HX  80
WOODRUFF       SUNNY     80  59  48 E5        30.00F HX  80
RHINELANDER    SUNNY     81  60  48 E9        30.00F HX  82
EAGLE RIVER    SUNNY     80  55  42 E5        30.01F HX  80
LAND O LAKES   SUNNY     81  59  47 E5        30.02F HX  81
PHILLIPS       CLOUDY    80  64  59 E3        29.98F HX  81
TOMAHAWK       SUNNY     80  63  56 NE3       30.00F HX  81
MEDFORD        SUNNY     79  66  63 E7        29.99R HX  81
MERRILL        SUNNY     82  64  55 E6        29.99F HX  83
$$

WIZ029-030-035-036-043>047-231600-
CENTRAL WISCONSIN

CITY           SKY/WX    TMP DP  RH WIND       PRES   REMARKS
WAUSAU         SUNNY     83  63  50 SE8       29.97F HX  84
MOSINEE        SUNNY     81  66  61 E6        30.00F HX  83
MARSHFIELD     MOSUNNY   82  69  64 SE9       29.98F HX  85
STEVENS POINT  SUNNY     81  65  59 SE6       30.00R HX  83
WAUPACA        SUNNY     85  65  51 S3        29.99S HX  87
WAUTOMA        MOSUNNY   83  69  62 E5        30.00R HAZE    HX  86
WISC RAPIDS    MOSUNNY   85  67  54 SE8       29.99F HX  87
CAMP DOUGLAS   CLOUDY    79  73  83 SE8       29.97F HX  82
$$

WIZ011>013-019>022-031-037>040-048>050-231600-
NORTHEAST WISCONSIN

CITY           SKY/WX    TMP DP  RH WIND       PRES   REMARKS
ANTIGO         SUNNY     80  62  54 CALM      30.01F HX  81
SHAWANO        SUNNY     83  63  51 E6        29.98F HX  84
OCONTO         SUNNY     81  67  63 E6        29.97F HX  83
STURGEON BAY   SUNNY     81  66  60 VRB3      29.99F HX  83
GREEN BAY      SUNNY     81  66  60 NE10      29.98F HX  83
MANITOWOC      SUNNY     83  68  60 E8        29.99S HX  86
APPLETON       MOSUNNY   84  57  39 NE7       29.96F HX  83
CLINTONVILLE   SUNNY     81  63  54 NE3       29.97F HX  82
OSHKOSH          N/A     83  68  60 E6        29.98F HX  86
$$

WIZ032>034-041-042-053>061-231600-
SOUTHWEST WISCONSIN

CITY           SKY/WX    TMP DP  RH WIND       PRES   REMARKS
LA CROSSE      TSTM      73  70  90 NE9       29.96R FOG
SPARTA         CLOUDY    78  75  90 SE5       29.96F HX  81
VIROQUA        CLOUDY    69  69 100 S10G25    29.99F
BOSCOBEL       TSTM      73  70  90 CALM      30.00S FOG
PRAIRIE DU CHI LGT RAIN  72  70  95 CALM      29.96R
PLATTEVILLE    CLOUDY    79  79 100 E3        30.00R HX  83
$$

WIZ056-057-062-063-064-067-068-231600-
SOUTH CENTRAL WISCONSIN

CITY           SKY/WX    TMP DP  RH WIND       PRES   REMARKS
REEDSBURG      PTSUNNY   77  77 100 CALM      29.99R
BARABOO/DELLS  PTSUNNY   78  77  94 CALM      30.00R HX  82
LONE ROCK      CLOUDY    79  77  94 E5        29.97S HX  83
MINERAL POINT  LGT RAIN  81  79  94 SE3       30.01R HX  89
MADISON        CLOUDY    83  77  82 SE3       29.99R HX  92
MIDDLETON      PTSUNNY   83  78  86 NE3       30.01R HX  93
WATERTOWN      CLOUDY    78  78 100 CALM      29.98S FOG     HX  80
MONROE         CLOUDY    81  75  83 CALM      30.01R HX  86
JANESVILLE     MOSUNNY   86  75  70 SE5       29.98S HX  95
$$

WIZ051-052-058>065-066-070>072-231600-
SOUTHEAST WISCONSIN

CITY           SKY/WX    TMP DP  RH WIND       PRES   REMARKS
MILWAUKEE      MOSUNNY   88  75  65 E9        29.97F HX  97
WAUKESHA       MOSUNNY   84  73  70 CALM      29.99F HX  91
MILWAUKEE/TIMM MOSUNNY   84  70  61 CALM      29.98F HX  88
RACINE         MOSUNNY   86  76  71 SE6       29.99F HX  96
BURLINGTON     MOSUNNY   86  75  69 E5        29.98S HX  96
KENOSHA        MOSUNNY   86  76  71 E7        29.98F HX  96
FOND DU LAC    SUNNY     84  70  62 CALM      29.98F HX  88
SHEBOYGAN      SUNNY     83  67  58 E6        29.99S HX  85
WEST BEND      SUNNY     86  70  58 CALM      29.98F HX  90
JUNEAU         PTSUNNY   78  78  99 CALM      30.01S FOG     HX  81
$$

LSZ147-162-231600-
LAKE SUPERIOR

STATION/POSITION TIME  TEMP    WIND        PRES    WAVE
                       AIR SEA DIR/SP/G            HT/PER
                 (UTC) (F)     (DEG/KT/KT) (MB)    (FT/S)
W MID LAKE BUOY  1450   62 58   90/  8/ 10 1015.7R   0
DEVILS ISLAND    1500   63      40/  6/  7 1014.7F
SAXON HARBOR     1400   71      CALM  /  1 1015.2F
$$

LMZ867-665-643>646-231600-
LAKE MICHIGAN

STATION/POSITION TIME  TEMP    WIND        PRES    WAVE
                       AIR SEA DIR/SP/G            HT/PER
                 (UTC) (F)     (DEG/KT/KT) (MB)    (FT/S)
CHAMBERS ISLAND  1400   75      20/  2/  2 1015.6S
S GREEN BAY BUOY 1500   74 74   50/  8/ 10   N/A
N MID LAKE BUOY  1450   70 69   10/  4/  6 1015.0R   1
NORTHPORT PIER   1400   73     330/  7/  9 1015.6R
KEWAUNEE LAKESHO 1500   75      40/  3/  4 1015.0F
SHEBOYGAN LAKESH 1500   72     360/  2/  2 1015.2F
PORT WASHINGTON  1440   73      50/  3/  4 1015.9R
MILWAUKEE LAKESH 1510   74     230/  1/  1   N/A
S MID LAKE BUOY  1450   77 76  190/  2/  2 1014.5F   0
KENOSHA   LAKESH 1500   81     130/  3/  3 1014.9F
$$

TC  - TEMPERATURE IN CELSIUS
VSB - VISIBILITY IN STATUTE MILES
WCI - WIND CHILL INDEX
HX  - HEAT INDEX





USA.gov is the U.S. government's official web portal to all federal, state and local government web resources and services.